CST,Max TemperatureF,Mean TemperatureF,Min TemperatureF,Max Dew PointF,MeanDew PointF,Min DewpointF,Max Humidity, Mean Humidity, Min Humidity, Max Sea Level PressureIn, Mean Sea Level PressureIn, Min Sea Level PressureIn, Max VisibilityMiles, Mean VisibilityMiles, Min VisibilityMiles, Max Wind SpeedMPH, Mean Wind SpeedMPH, Max Gust SpeedMPH,PrecipitationIn, CloudCover, Events, WindDirDegrees
2012-1-1,54,43,32,28,25,22,75,52,28,30.67,30.55,30.34,10,10,10,24,8,32,0.00,0,,350
2012-1-2,54,39,23,27,23,19,85,56,26,30.80,30.68,30.58,10,10,10,9,3,9,0.00,0,,166
2012-1-3,65,49,32,23,21,18,64,42,19,30.56,30.34,30.14,10,10,10,26,15,33,0.00,0,,192
2012-1-4,62,49,36,32,28,22,70,50,29,30.38,30.28,30.13,10,10,10,24,10,31,0.00,0,,324
2012-1-5,68,48,28,34,27,21,92,56,19,30.36,30.22,30.03,10,10,10,13,7,17,0.00,0,,191
2012-1-6,74,58,41,36,30,19,70,42,13,30.01,29.90,29.78,10,10,10,24,13,31,0.00,0,,209
2012-1-7,58,48,37,33,29,25,67,50,33,30.13,30.04,29.98,10,10,10,16,8,20,0.00,0,,345
2012-1-8,52,42,32,43,37,28,89,76,63,30.17,30.08,30.01,10,10,9,17,6,23,0.03,5,Rain,32
2012-1-9,43,40,36,38,36,34,100,91,82,30.23,30.16,30.11,10,8,1,22,13,29,1.24,8,Rain-Snow-Thunderstorm,359
2012-1-10,54,45,36,38,36,33,100,73,46,30.11,29.99,29.86,10,10,9,17,10,22,0.06,6,Rain,291
2012-1-11,63,50,36,39,34,26,85,61,36,30.11,29.82,29.64,10,10,10,36,16,39,0.00,2,,264
2012-1-12,44,36,27,27,15,7,70,47,24,30.38,30.27,30.14,10,10,10,26,13,33,0.00,1,,313
2012-1-13,54,42,29,25,21,16,78,50,22,30.31,30.24,30.19,10,10,10,18,8,23,0.00,0,,207
2012-1-14,68,51,33,27,24,20,69,43,16,30.33,30.26,30.21,10,10,10,14,8,17,0.00,0,,197
2012-1-15,70,55,40,51,36,23,86,57,28,30.22,30.11,29.99,10,10,10,30,17,39,0.00,0,,193
2012-1-16,76,65,54,56,52,48,93,66,38,30.04,29.93,29.82,10,10,10,30,19,38,0.00,1,,200
2012-1-17,60,45,30,53,30,21,93,65,37,30.38,30.21,29.91,10,10,10,26,11,36,0.00,0,,359
2012-1-18,65,45,24,34,26,17,88,59,29,30.37,30.17,29.92,10,10,10,17,8,20,0.00,0,,185
2012-1-19,75,61,47,34,31,27,56,37,17,29.90,29.84,29.79,10,10,10,20,9,24,0.00,0,,208
2012-1-20,82,64,45,37,30,19,56,33,10,29.97,29.76,29.65,10,10,10,22,11,24,0.00,0,,238
2012-1-21,54,42,29,34,27,21,75,57,38,30.14,29.98,29.74,10,10,10,20,9,23,0.00,0,,25
2012-1-22,72,60,48,48,31,12,83,47,10,30.00,29.76,29.63,10,8,2,37,17,45,0.00,0,,259
2012-1-23,64,48,32,36,30,26,82,54,25,30.14,30.03,29.94,10,10,10,21,7,25,0.00,0,,162
2012-1-24,64,55,45,54,45,34,100,76,52,29.98,29.89,29.78,10,9,2,22,13,25,0.01,6,,119
2012-1-25,50,47,43,50,45,42,100,96,92,30.02,29.96,29.86,10,7,2,29,14,37,1.43,8,Rain-Thunderstorm,344
2012-1-26,62,50,37,42,38,35,100,70,39,30.09,30.03,29.96,10,10,9,22,8,26,0.00,1,,306
2012-1-27,73,56,39,42,36,30,82,55,28,30.24,29.97,29.83,10,10,10,31,15,40,0.00,0,,183
2012-1-28,49,41,33,31,27,20,76,54,31,30.51,30.43,30.27,10,10,10,18,6,24,0.00,2,,29
2012-1-29,60,45,29,36,30,24,85,59,32,30.45,30.35,30.22,10,10,10,18,10,25,0.00,0,,177
2012-1-30,68,57,45,52,44,34,80,66,52,30.21,30.09,29.99,10,10,10,29,17,37,0.00,1,,200
2012-1-31,73,64,55,52,50,47,86,62,38,30.04,30.00,29.94,10,10,10,29,14,38,0.00,1,,192